Flag for France Weather past 2 weeks in Toulon, France

Now
50 °F

Clear.


Feels Like: 44 °F
Forecast: 41 / 51 °F
Wind: 17 mph from Northwest

Location: Hyeres Airport

Current Time: Jan 30, 2015 at 3:26:31 PM

Latest Report: Jan 30, 2015 at 3:00 PM


Visibility: N/A

Pressure: 29.15 "Hg

Humidity: 35%

Dew point: 23 °F

Location of ToulonLocation

Historic Weather in Toulon — Graph

°F

Toulon temperature yesterday

Maximum temperature yesterday: 55 °F (at 2:00 PM)
Minimum temperature yesterday: 48 °F (at 12:00 AM)
Average temperature yesterday: 52 °F

Past Weeks' High & Low Weather Summary

 TemperatureHumidityPressure
High61 °F (Jan 15, 2:00 PM)93% (Jan 18, 10:00 PM)30.21 "Hg (Jan 18, 10:00 PM)
Low30 °F (Jan 18, 7:00 AM)28% (Jan 24, 5:00 PM)29.03 "Hg (Jan 30, 5:00 AM)
Average48 °F66%29.85 "Hg
* Reported Jan 15 2:00 PM — Jan 30 2:30 PM, Toulon, Weather by CustomWeather, © 2014

Note: Actual official high and low records may vary slightly from our data, if they occured in-between our weather recording intervals... More about our weather records

Advertising

Toulon weather history for previous 24 hours

 ConditionsComfort  
Time TempWeatherWind HumidityBarometerVisibility
2:30 PM
Jan 30
50 °FClear.17 mph35%29.15 "HgN/A
2:00 PM50 °FClear.22 mph35%29.18 "HgN/A
1:30 PM50 °FClear.17 mph32%29.18 "HgN/A
1:00 PM50 °FClear.16 mph35%29.18 "HgN/A
12:30 PM48 °FClear.16 mph37%29.18 "HgN/A
12:00 PM48 °FClear.22 mph34%29.18 "HgN/A
11:30 AM48 °FClear.21 mph37%29.18 "HgN/A
11:00 AM46 °FClear.26 mph40%29.18 "HgN/A
10:30 AM46 °FClear.21 mph37%29.18 "HgN/A
10:00 AM46 °FClear.22 mph37%29.15 "HgN/A
9:30 AM46 °FClear.20 mph34%29.15 "HgN/A
9:00 AM45 °FClear.23 mph42%29.12 "HgN/A
8:30 AM45 °FScattered clouds.22 mph57%29.12 "HgN/A
8:00 AM46 °FClear.22 mph53%29.09 "HgN/A
7:30 AM48 °FClear.21 mph50%29.06 "HgN/A
7:00 AM48 °FPassing clouds.26 mph54%29.06 "HgN/A
6:30 AM50 °FClear.23 mph54%29.03 "HgN/A
6:00 AM52 °FClear.22 mph50%29.03 "HgN/A
5:30 AM50 °FClear.20 mph58%29.03 "HgN/A
5:00 AM50 °FClear.18 mph67%29.03 "HgN/A
4:30 AM52 °FClear.15 mph62%29.06 "HgN/A
3:30 AM54 °FPartly cloudy.15 mph63%29.09 "HgN/A
3:00 AM54 °FClear.21 mph67%29.06 "HgN/A
2:30 AM54 °FClear.20 mph72%29.06 "HgN/A
2:00 AM55 °FCool.22 mph77%29.06 "HgN/A
1:30 AM54 °FPartly cloudy.22 mph82%29.06 "HgN/A
1:00 AM55 °FRain. Passing clouds.23 mph82%29.06 "HgN/A
12:30 AM57 °FMostly cloudy.28 mph72%29.09 "HgN/A
12:00 AM55 °FLight rain. Mostly cloudy.18 mph77%29.12 "Hg5 mi
11:30 PM
Jan 29
55 °FMostly cloudy.26 mph72%29.12 "HgN/A
11:00 PM54 °FPartly cloudy.25 mph82%29.15 "HgN/A
10:30 PM52 °FRain. Fog.22 mph88%29.18 "Hg1 mi
10:00 PM52 °FLight rain. Fog.17 mph88%29.21 "Hg2 mi
9:30 PM52 °FLight rain. Partly cloudy.16 mph82%29.24 "HgN/A
9:00 PM52 °FLight rain. Mostly cloudy.18 mph82%29.30 "HgN/A
8:30 PM54 °FLight rain. Mostly cloudy.15 mph72%29.33 "HgN/A
8:00 PM54 °FPassing clouds.17 mph67%29.36 "HgN/A
7:30 PM54 °FPartly cloudy.23 mph67%29.39 "HgN/A
7:00 PM54 °FPartly cloudy.22 mph67%29.42 "HgN/A
6:30 PM54 °FMostly cloudy.16 mph54%29.42 "HgN/A
6:00 PM54 °FPartly cloudy.17 mph58%29.45 "HgN/A
5:30 PM52 °FLight rain. Partly sunny.22 mph72%29.45 "HgN/A
5:00 PM52 °FLight rain. Mostly cloudy.18 mph67%29.47 "HgN/A
4:30 PM52 °FLight rain. Broken clouds.18 mph72%29.50 "HgN/A
4:00 PM52 °FLight rain. Cloudy.12 mph72%29.50 "HgN/A
3:30 PM54 °FClear.15 mph58%29.50 "HgN/A
3:00 PM54 °FCool.16 mph63%29.50 "HgN/A
Weather by CustomWeather, © 2014

See weather overviewHow to use our weather pages